Regional Weather Roundup
Issued by NWS

Home | Current Version | Previous Version | Graphics & Text | Print | Product List | Glossary On
Versions: 1 2 3 4 5 6 7 8 9 10 11 12 13 14 15 16 17 18 19 20 21 22 23 24 25 26 27 28 29 30 31 32 33 34 35 36 37 38 39 40 41 42 43 44 45 46 47 48 49 50
000
ASUS43 KOAX 240002
RWRNE

WEATHER ROUNDUP FOR NEBRASKA
NATIONAL WEATHER SERVICE OMAHA NE
700 PM CDT WED APR 23 2014

NOTES: SATELLITE DATA IS BEING USED TO AUGMENT CLOUD COVER ABOVE
       12000 FEET.
       "FAIR" INDICATES FEW OR NO CLOUDS BELOW 12,000 FEET WITH NO
       SIGNIFICANT WEATHER AND/OR OBSTRUCTIONS TO VISIBILITY.

  * THESE STATIONS DO NOT REPORT WEATHER SUCH AS RAIN...SNOW OR FOG.

NEZ001>004-019>022-054>056-240100-
NEBRASKA PANHANDLE

CITY           SKY/WX    TMP DP  RH WIND       PRES   REMARKS
SCOTTSBLUFF    CLOUDY    61  13  15 W16       29.69R
6HR MIN TEMP:  61; 6HR MAX TEMP:  67;

ALLIANCE       CLOUDY    61  15  16 NW15G25   29.67R
6HR MIN TEMP:  61; 6HR MAX TEMP:  70;

CHADRON        CLOUDY    63  32  31 NW9       29.67R
6HR MIN TEMP:  62; 6HR MAX TEMP:  70;

KIMBALL        CLOUDY    55  10  17 NW21G35   29.72S
SIDNEY         LGT RAIN  57  26  30 NW26G37   29.74R
6HR MIN TEMP:  56; 6HR MAX TEMP:  71; 6HR PCP: TRACE;

$$

NEZ057>060-069>072-079>082-240100-
SOUTHWEST NEBRASKA

CITY           SKY/WX    TMP DP  RH WIND       PRES   REMARKS
NORTH PLATTE   PTSUNNY   70  31  23 N18       29.52F
6HR MIN TEMP:  70; 6HR MAX TEMP:  79;

IMPERIAL       PTSUNNY   71  24  17 N26G36    29.54F
6HR MIN TEMP:  71; 6HR MAX TEMP:  80;

LEXINGTON      MOSUNNY   77  38  24 N18       29.47F
MCCOOK         MOSUNNY   76  39  26 N16       29.47S
6HR MIN TEMP:  76; 6HR MAX TEMP:  81;

OGALLALA       CLOUDY    68  19  15 N21       29.61S
$$

NEZ005>010-023>029-035>040-094-240100-
NORTH CENTRAL NEBRASKA

CITY           SKY/WX    TMP DP  RH WIND       PRES   REMARKS
VALENTINE      MOSUNNY   68  44  42 NW30G39   29.58R
6HR MIN TEMP:  68; 6HR MAX TEMP:  77;

AINSWORTH      SUNNY     74  22  14 W21G26    29.56S
BROKEN BOW     SUNNY     75  29  18 N21       29.51F
6HR MIN TEMP:  74; 6HR MAX TEMP:  79;

O`NEILL        MOSUNNY   76  39  25 NW18      29.52R
ORD            MOSUNNY   80  32  17 N15       29.47F
6HR MIN TEMP:  70; 6HR MAX TEMP:  82;

THEDFORD       SUNNY     73  20  13 NW16G23   29.58F
$$

NEZ041-046>049-061>064-073>077-083>087-240100-
SOUTH CENTRAL NEBRASKA

CITY           SKY/WX    TMP DP  RH WIND       PRES   REMARKS
GRAND ISLAND   TSTM      65  56  72 SE17      29.48F
6HR MIN TEMP:  63; 6HR MAX TEMP:  81; 6HR PCP:  0.05;

AURORA         TSTM      65  55  71 NE13      29.53R
HASTINGS       CLOUDY    64  57  78 NE7       29.48F THUNDER
6HR MIN TEMP:  62; 6HR MAX TEMP:  80; 6HR PCP:  0.63;

HEBRON         PTSUNNY   80  46  29 S21G30    29.50F
HOLDREGE       TSTM      64  54  68 E8        29.46F
KEARNEY *      CLOUDY    64  55  72 S20G52    29.46S THUNDER
YORK           LGT RAIN  64  54  68 E22       29.54F
$$

NEZ011>018-030>034-042>045-240100-
NORTHEAST NEBRASKA

CITY           SKY/WX    TMP DP  RH WIND       PRES   REMARKS
NORFOLK        TSTM      58  47  66 SE16      29.59R
6HR MIN TEMP:  58; 6HR MAX TEMP:  73; 6HR PCP:  0.08;

ALBION         CLOUDY    64  49  58 E14       29.53F
BLAIR          CLOUDY    55  43  62 SE23G31   29.62F
COLUMBUS *     CLOUDY    63  46  55 SE15G31   29.54S
FREMONT        TSTM      57  45  63 SE15G22   29.64R
TEKAMAH        CLOUDY    58  43  57 SE17      29.65F
6HR MIN TEMP:  56; 6HR MAX TEMP:  62;

$$

NEZ050>053-065>068-078-088>093-240100-
SOUTHEAST NEBRASKA

CITY           SKY/WX    TMP DP  RH WIND       PRES   REMARKS
LINCOLN        CLOUDY    63  48  58 E10       29.59F
6HR MIN TEMP:  58; 6HR MAX TEMP:  69; 6HR PCP:  0.01;

OMAHA EPPLEY   CLOUDY    56  44  64 SE25G39   29.63F
6HR MIN TEMP:  51; 6HR MAX TEMP:  58; 6HR PCP:  0.02;

BEATRICE       CLOUDY    74  47  39 SE15      29.54F
FALLS CITY     CLOUDY    71  45  39 SE20G30   29.64F
6HR MIN TEMP:  56; 6HR MAX TEMP:  71; 6HR PCP: TRACE;

NEBRASKA CITY  CLOUDY    67  44  43 E15       29.64F
PLATTSMOUTH    LGT RAIN  58  46  63 E17G23    29.64F
$$

NEZ044-045-051>053-067-240100-
OMAHA AREA

CITY           SKY/WX    TMP DP  RH WIND       PRES   REMARKS
OMAHA EPPLEY   CLOUDY    56  44  64 SE25G39   29.63F
6HR MIN TEMP:  51; 6HR MAX TEMP:  58; 6HR PCP:  0.02;

BLAIR          CLOUDY    55  43  62 SE23G31   29.62F
FREMONT        TSTM      57  45  63 SE15G22   29.64R
MILLARD        CLOUDY    57  44  62 SE14G24   29.63F
PLATTSMOUTH    LGT RAIN  58  46  63 E17G23    29.64F
WAHOO          MOCLDY    57  45  62 E13       29.63R
$$



USA.gov is the U.S. government's official web portal to all federal, state and local government web resources and services.